• In United Kingdom
  • List of Countries
  • For 7 days
  • Water Temperature
  • Satellite Maps
  • Weather Map
  • Weather Widgets
  • user-avatar
    Login

    Hourly Weather La Rioja

    Today, 17 January, Wednesday

    Time Temperature Precipitation Wind Pressure Humidity
    00:00 +29°C° 1.2 mm 3 mps 714 mmHg 57%
    01:00 +28°C° 1.2 mm 3 mps 714 mmHg 58%
    02:00 +28°C° 1.2 mm 3 mps 714 mmHg 60%
    03:00 +27°C° 0.3 mm 3 mps 714 mmHg 62%
    04:00 +26°C° 0.3 mm 3 mps 713 mmHg 63%
    05:00 +26°C° 0.3 mm 3 mps 713 mmHg 65%
    06:00 +26°C° 0.2 mm 3 mps 714 mmHg 63%
    07:00 +27°C° 0.2 mm 3 mps 714 mmHg 61%
    08:00 +27°C° 0.2 mm 3 mps 715 mmHg 59%
    09:00 +28°C° 0 mm 4 mps 715 mmHg 55%
    10:00 +30°C° 0 mm 4 mps 715 mmHg 51%
    11:00 +32°C° 0 mm 4 mps 715 mmHg 47%
    12:00 +33°C° 0.3 mm 5 mps 714 mmHg 45%
    13:00 +33°C° 0.3 mm 5 mps 714 mmHg 43%
    14:00 +34°C° 0.3 mm 5 mps 713 mmHg 42%
    15:00 +34°C° 0.5 mm 5 mps 713 mmHg 41%
    16:00 +34°C° 0.5 mm 5 mps 713 mmHg 41%
    17:00 +34°C° 0.5 mm 5 mps 712 mmHg 41%
    18:00 +34°C° 0.3 mm 4 mps 713 mmHg 44%
    19:00 +33°C° 0.3 mm 4 mps 713 mmHg 46%
    20:00 +31°C° 0.3 mm 3 mps 714 mmHg 49%
    21:00 +30°C° 0.9 mm 3 mps 714 mmHg 54%
    22:00 +29°C° 0.9 mm 3 mps 715 mmHg 59%
    23:00 +28°C° 0.9 mm 3 mps 716 mmHg 64%

    Tomorrow, 18 January, Thursday

    Time Temperature Precipitation Wind Pressure Humidity
    00:00 +28°C° 1.3 mm 2 mps 715 mmHg 67%
    01:00 +27°C° 1.3 mm 2 mps 715 mmHg 69%
    02:00 +26°C° 1.3 mm 2 mps 715 mmHg 71%
    03:00 +26°C° 1.1 mm 1 mps 715 mmHg 72%
    04:00 +26°C° 1.1 mm 1 mps 715 mmHg 73%
    05:00 +25°C° 1.1 mm 1 mps 715 mmHg 74%
    06:00 +26°C° 0.3 mm 1 mps 716 mmHg 70%
    07:00 +27°C° 0.3 mm 1 mps 716 mmHg 66%
    08:00 +27°C° 0.3 mm 1 mps 717 mmHg 62%
    09:00 +29°C° 0.9 mm 1 mps 717 mmHg 57%
    10:00 +30°C° 0.9 mm 2 mps 717 mmHg 53%
    11:00 +31°C° 0.9 mm 2 mps 717 mmHg 48%
    12:00 +32°C° 0.7 mm 2 mps 716 mmHg 45%
    13:00 +34°C° 0.7 mm 3 mps 715 mmHg 43%
    14:00 +35°C° 0.7 mm 4 mps 715 mmHg 40%
    15:00 +35°C° 0.6 mm 4 mps 714 mmHg 40%
    16:00 +35°C° 0.6 mm 4 mps 714 mmHg 40%
    17:00 +35°C° 0.6 mm 4 mps 713 mmHg 39%
    18:00 +34°C° 0.5 mm 4 mps 714 mmHg 43%
    19:00 +33°C° 0.5 mm 4 mps 714 mmHg 46%
    20:00 +31°C° 0.5 mm 3 mps 714 mmHg 50%
    21:00 +30°C° 1.2 mm 3 mps 715 mmHg 54%
    22:00 +29°C° 1.2 mm 3 mps 715 mmHg 58%
    23:00 +29°C° 1.2 mm 3 mps 716 mmHg 62%

    Day after tomorrow, 19 January, Friday

    Time Temperature Precipitation Wind Pressure Humidity
    00:00 +28°C° 1.1 mm 2 mps 716 mmHg 63%
    01:00 +28°C° 1.1 mm 2 mps 715 mmHg 64%
    02:00 +27°C° 1.1 mm 2 mps 715 mmHg 65%
    03:00 +27°C° 0.8 mm 1 mps 715 mmHg 67%
    04:00 +27°C° 0.8 mm 1 mps 715 mmHg 68%
    05:00 +26°C° 0.8 mm 1 mps 715 mmHg 69%
    06:00 +27°C° 0.9 mm 1 mps 716 mmHg 66%
    07:00 +28°C° 0.9 mm 1 mps 716 mmHg 62%
    08:00 +28°C° 0.9 mm 1 mps 717 mmHg 58%
    09:00 +29°C° 1 mm 1 mps 716 mmHg 54%
    10:00 +31°C° 1 mm 2 mps 716 mmHg 50%
    11:00 +33°C° 1 mm 3 mps 716 mmHg 46%
    12:00 +33°C° 1.2 mm 3 mps 715 mmHg 44%
    13:00 +34°C° 1.2 mm 3 mps 714 mmHg 43%
    14:00 +35°C° 1.2 mm 4 mps 714 mmHg 42%
    15:00 +35°C° 0.9 mm 4 mps 713 mmHg 41%
    16:00 +35°C° 0.9 mm 4 mps 712 mmHg 41%
    17:00 +35°C° 0.9 mm 5 mps 712 mmHg 41%
    18:00 +34°C° 1.2 mm 4 mps 712 mmHg 45%
    19:00 +33°C° 1.2 mm 4 mps 712 mmHg 49%
    20:00 +32°C° 1.2 mm 4 mps 712 mmHg 54%
    21:00 +30°C° 2.1 mm 3 mps 713 mmHg 58%
    22:00 +29°C° 2.1 mm 2 mps 713 mmHg 62%
    23:00 +29°C° 2.1 mm 2 mps 713 mmHg 66%

    20 January, Saturday

    Time Temperature Precipitation Wind Pressure Humidity
    00:00 +28°C° 1.4 mm 2 mps 712 mmHg 68%
    01:00 +28°C° 1.4 mm 1 mps 712 mmHg 69%
    02:00 +27°C° 1.4 mm 1 mps 711 mmHg 71%
    03:00 +27°C° 1.1 mm 1 mps 711 mmHg 72%
    04:00 +26°C° 1.1 mm 2 mps 711 mmHg 73%
    05:00 +26°C° 1.1 mm 2 mps 711 mmHg 74%
    06:00 +27°C° 0.1 mm 2 mps 711 mmHg 70%
    07:00 +28°C° 0.1 mm 2 mps 712 mmHg 66%
    08:00 +29°C° 0.1 mm 2 mps 712 mmHg 62%
    09:00 +30°C° 1.1 mm 3 mps 712 mmHg 57%
    10:00 +31°C° 1.1 mm 3 mps 712 mmHg 52%
    11:00 +33°C° 1.1 mm 3 mps 711 mmHg 47%
    12:00 +34°C° 1.4 mm 4 mps 711 mmHg 47%
    13:00 +34°C° 1.4 mm 5 mps 710 mmHg 47%
    14:00 +35°C° 1.4 mm 6 mps 709 mmHg 47%
    15:00 +34°C° 1.3 mm 6 mps 709 mmHg 51%
    16:00 +33°C° 1.3 mm 7 mps 708 mmHg 54%
    17:00 +32°C° 1.3 mm 7 mps 708 mmHg 58%
    18:00 +30°C° 1 mm 6 mps 709 mmHg 62%
    19:00 +29°C° 1 mm 6 mps 709 mmHg 67%
    20:00 +28°C° 1 mm 5 mps 710 mmHg 71%
    21:00 +27°C° 0.3 mm 5 mps 711 mmHg 74%
    22:00 +27°C° 0.3 mm 4 mps 711 mmHg 76%
    23:00 +26°C° 0.3 mm 3 mps 711 mmHg 78%

    21 January, Sunday

    Time Temperature Precipitation Wind Pressure Humidity
    00:00 +26°C° 0.2 mm 3 mps 711 mmHg 79%
    01:00 +26°C° 0.2 mm 2 mps 711 mmHg 80%
    02:00 +25°C° 0.2 mm 2 mps 710 mmHg 80%
    03:00 +25°C° 0.2 mm 2 mps 710 mmHg 80%
    04:00 +25°C° 0.2 mm 2 mps 710 mmHg 80%
    05:00 +24°C° 0.2 mm 2 mps 710 mmHg 80%
    06:00 +25°C° 0 mm 2 mps 711 mmHg 77%
    07:00 +25°C° 0 mm 2 mps 711 mmHg 75%
    08:00 +26°C° 0 mm 1 mps 712 mmHg 72%
    09:00 +27°C° 0 mm 2 mps 711 mmHg 66%
    10:00 +29°C° 0 mm 2 mps 711 mmHg 61%
    11:00 +30°C° 0 mm 2 mps 711 mmHg 55%
    12:00 +31°C° 0.4 mm 3 mps 710 mmHg 51%
    13:00 +33°C° 0.4 mm 3 mps 710 mmHg 48%
    14:00 +34°C° 0.4 mm 4 mps 709 mmHg 44%
    15:00 +34°C° 0.6 mm 4 mps 709 mmHg 43%
    16:00 +34°C° 0.6 mm 4 mps 708 mmHg 43%
    17:00 +35°C° 0.6 mm 4 mps 708 mmHg 42%
    18:00 +34°C° 0.4 mm 4 mps 709 mmHg 45%
    19:00 +33°C° 0.4 mm 3 mps 709 mmHg 49%
    20:00 +31°C° 0.4 mm 3 mps 709 mmHg 52%
    21:00 +30°C° 0.8 mm 2 mps 710 mmHg 57%
    22:00 +29°C° 0.8 mm 2 mps 710 mmHg 61%
    23:00 +28°C° 0.8 mm 2 mps 710 mmHg 65%

    22 January, Monday

    Time Temperature Precipitation Wind Pressure Humidity
    00:00 +28°C° 0.9 mm 1 mps 710 mmHg 67%
    01:00 +28°C° 0.9 mm 1 mps 710 mmHg 69%
    02:00 +27°C° 0.9 mm 1 mps 709 mmHg 70%
    03:00 +27°C° 0.5 mm 1 mps 709 mmHg 70%
    04:00 +26°C° 0.5 mm 1 mps 709 mmHg 71%
    05:00 +26°C° 0.5 mm 1 mps 709 mmHg 71%
    06:00 +27°C° 0.6 mm 1 mps 710 mmHg 66%
    07:00 +27°C° 0.6 mm 1 mps 710 mmHg 61%
    08:00 +28°C° 0.6 mm 1 mps 710 mmHg 56%
    09:00 +30°C° 0.4 mm 1 mps 710 mmHg 52%
    10:00 +31°C° 0.4 mm 2 mps 710 mmHg 48%
    11:00 +32°C° 0.4 mm 2 mps 710 mmHg 44%
    12:00 +34°C° 0.4 mm 3 mps 709 mmHg 41%
    13:00 +35°C° 0.4 mm 3 mps 709 mmHg 38%
    14:00 +36°C° 0.4 mm 3 mps 708 mmHg 35%
    15:00 +36°C° 0.5 mm 4 mps 708 mmHg 34%
    16:00 +37°C° 0.5 mm 4 mps 707 mmHg 33%
    17:00 +37°C° 0.5 mm 4 mps 707 mmHg 32%
    18:00 +36°C° 0.4 mm 4 mps 707 mmHg 35%
    19:00 +34°C° 0.4 mm 3 mps 708 mmHg 38%
    20:00 +32°C° 0.4 mm 2 mps 708 mmHg 41%
    21:00 +32°C° 0.5 mm 2 mps 709 mmHg 44%
    22:00 +31°C° 0.5 mm 2 mps 709 mmHg 46%
    23:00 +30°C° 0.5 mm 1 mps 710 mmHg 49%
    Show more